Location: Ar Ranvel
(48.3000°N, 4.8833°W)
Time: 12:48:00
(UTC+00:00)

Cosmos 2333 Rocket - Pass Details

Date: 16 June 2021
Orbit: 841 x 861 km, 70.8° (Epoch: 30 July)

Event Time Altitude Azimuth Distance (km) Brightness Sun altitude
Exits shadow 21:09:00 - 139° (SE) 2,680 4.1 -6.5°
Reaches altitude 10° 21:09:49 10° 133° (SE) 2,490 4.0 -6.6°
Maximum altitude 21:13:04 16° 98° (E) 2,118 3.8 -7.0°
Drops below altitude 10° 21:16:18 10° 63° (ENE) 2,494 4.5 -7.3°
Sets 21:19:44 0° 42° (NE) 3,433 5.5 -7.7°
